Time,TemperatureF,DewpointF,PressureIn,WindDirection,WindDirectionDegrees,WindSpeedMPH,WindSpeedGustMPH,Humidity,HourlyPrecipIn,Conditions,Clouds,dailyrainin,SolarRadiationWatts/m^2,SoftwareType,DateUTC
2013-02-10 00:01:00,19.0,18.0,-100.00,SE,126,2.0,5.0,94,0.00,,,0.00,0.000000,,2013-02-10 06:01:00,
2013-02-10 00:10:00,20.0,19.0,-100.00,ESE,110,2.0,5.0,95,0.00,,,0.00,0.000000,,2013-02-10 06:10:00,
2013-02-10 00:32:00,20.0,19.0,-100.00,ESE,110,2.0,5.0,95,0.00,,,0.00,0.000000,,2013-02-10 06:32:00,
2013-02-10 00:42:00,20.0,19.0,-100.00,ESE,110,2.0,5.0,95,0.00,,,0.00,0.000000,,2013-02-10 06:42:00,
2013-02-10 00:52:00,20.0,19.0,-100.00,ESE,110,2.0,5.0,95,0.00,,,0.00,0.000000,,2013-02-10 06:52:00,
2013-02-10 01:01:00,20.0,19.0,-100.00,ESE,110,2.0,5.0,95,0.00,,,0.00,0.000000,,2013-02-10 07:01:00,
2013-02-10 01:10:00,20.0,19.0,-100.00,East,98,1.0,4.0,95,0.00,,,0.00,0.000000,,2013-02-10 07:10:00,
2013-02-10 01:42:00,20.0,19.0,-100.00,East,98,1.0,4.0,95,0.00,,,0.00,0.000000,,2013-02-10 07:42:00,
2013-02-10 01:52:00,20.0,19.0,-100.00,East,98,1.0,4.0,95,0.00,,,0.00,0.000000,,2013-02-10 07:52:00,
2013-02-10 02:01:00,20.0,19.0,-100.00,East,98,1.0,4.0,95,0.00,,,0.00,0.000000,,2013-02-10 08:01:00,
2013-02-10 02:10:00,21.0,20.0,-100.00,SE,146,2.0,4.0,95,0.00,,,0.00,0.000000,,2013-02-10 08:10:00,
2013-02-10 02:43:00,21.0,20.0,-100.00,SE,146,2.0,4.0,95,0.00,,,0.00,0.000000,,2013-02-10 08:43:00,
2013-02-10 02:52:00,21.0,20.0,-100.00,SE,146,2.0,4.0,95,0.00,,,0.00,0.000000,,2013-02-10 08:52:00,
2013-02-10 03:02:00,21.0,20.0,-100.00,SE,146,2.0,4.0,95,0.00,,,0.00,0.000000,,2013-02-10 09:02:00,
2013-02-10 03:10:00,21.0,20.0,-100.00,SSE,160,3.0,5.0,95,0.00,,,0.00,0.000000,,2013-02-10 09:10:00,
2013-02-10 03:32:00,21.0,20.0,-100.00,SSE,160,3.0,5.0,95,0.00,,,0.00,0.000000,,2013-02-10 09:32:00,
2013-02-10 03:42:00,21.0,20.0,-100.00,SSE,160,3.0,5.0,95,0.00,,,0.00,0.000000,,2013-02-10 09:42:00,
2013-02-10 03:52:00,21.0,20.0,-100.00,SSE,160,3.0,5.0,95,0.00,,,0.00,0.000000,,2013-02-10 09:52:00,
2013-02-10 04:01:00,21.0,20.0,-100.00,SSE,160,3.0,5.0,95,0.00,,,0.00,0.000000,,2013-02-10 10:01:00,
2013-02-10 04:10:00,21.0,20.0,-100.00,SE,144,2.0,6.0,95,0.00,,,0.00,0.000000,,2013-02-10 10:10:00,
2013-02-10 04:42:00,21.0,20.0,-100.00,SE,144,2.0,6.0,95,0.00,,,0.00,0.000000,,2013-02-10 10:42:00,
2013-02-10 04:52:00,21.0,20.0,-100.00,SE,144,2.0,6.0,95,0.00,,,0.00,0.000000,,2013-02-10 10:52:00,
2013-02-10 05:01:00,21.0,20.0,-100.00,SE,144,2.0,6.0,95,0.00,,,0.00,0.000000,,2013-02-10 11:01:00,
2013-02-10 05:10:00,21.0,20.0,-100.00,SE,134,3.0,6.0,94,0.00,,,0.00,0.000000,,2013-02-10 11:10:00,
2013-02-10 05:32:00,21.0,20.0,-100.00,SE,134,3.0,6.0,94,0.00,,,0.00,0.000000,,2013-02-10 11:32:00,
2013-02-10 05:42:00,21.0,20.0,-100.00,SE,134,3.0,6.0,94,0.00,,,0.00,0.000000,,2013-02-10 11:42:00,
2013-02-10 05:52:00,21.0,20.0,-100.00,SE,134,3.0,6.0,94,0.00,,,0.00,0.000000,,2013-02-10 11:52:00,
2013-02-10 06:02:00,21.0,20.0,-100.00,SE,134,3.0,6.0,94,0.00,,,0.00,0.000000,,2013-02-10 12:02:00,
2013-02-10 09:10:00,24.0,23.0,-100.00,SE,126,4.0,11.0,95,-99.99,,,0.00,41.000000,,2013-02-10 15:10:00,
2013-02-10 09:32:00,24.0,23.0,-100.00,SE,126,4.0,11.0,95,-99.99,,,0.00,41.000000,,2013-02-10 15:32:00,
2013-02-10 09:42:00,24.0,23.0,-100.00,SE,126,4.0,11.0,95,-99.99,,,0.00,41.000000,,2013-02-10 15:42:00,
2013-02-10 09:52:00,24.0,23.0,-100.00,SE,126,4.0,11.0,95,-99.99,,,0.00,41.000000,,2013-02-10 15:52:00,
2013-02-10 10:02:00,24.0,23.0,-100.00,SE,126,4.0,11.0,95,-99.99,,,0.00,41.000000,,2013-02-10 16:02:00,
2013-02-10 10:10:00,25.0,23.0,-100.00,SE,131,4.0,9.0,93,0.00,,,0.00,54.000000,,2013-02-10 16:10:00,
2013-02-10 10:32:00,25.0,23.0,-100.00,SE,131,4.0,9.0,93,0.00,,,0.00,54.000000,,2013-02-10 16:32:00,
2013-02-10 10:42:00,25.0,23.0,-100.00,SE,131,4.0,9.0,93,0.00,,,0.00,54.000000,,2013-02-10 16:42:00,
2013-02-10 10:52:00,25.0,23.0,-100.00,SE,131,4.0,9.0,93,0.00,,,0.00,54.000000,,2013-02-10 16:52:00,
2013-02-10 11:02:00,25.0,23.0,-100.00,SE,131,4.0,9.0,93,0.00,,,0.00,54.000000,,2013-02-10 17:02:00,
2013-02-10 11:10:00,26.0,25.0,-100.00,SE,125,5.0,11.0,94,0.00,,,0.00,31.000000,,2013-02-10 17:10:00,
2013-02-10 11:32:00,26.0,25.0,-100.00,SE,125,5.0,11.0,94,0.00,,,0.00,31.000000,,2013-02-10 17:32:00,
2013-02-10 11:42:00,26.0,25.0,-100.00,SE,125,5.0,11.0,94,0.00,,,0.00,31.000000,,2013-02-10 17:42:00,
2013-02-10 11:52:00,26.0,25.0,-100.00,SE,125,5.0,11.0,94,0.00,,,0.00,31.000000,,2013-02-10 17:52:00,
2013-02-10 12:02:00,26.0,25.0,-100.00,SE,125,5.0,11.0,94,0.00,,,0.00,31.000000,,2013-02-10 18:02:00,
2013-02-10 12:10:00,28.0,27.0,-100.00,ESE,108,5.0,11.0,94,0.00,,,0.00,52.000000,,2013-02-10 18:10:00,
2013-02-10 12:42:00,28.0,27.0,-100.00,ESE,108,5.0,11.0,94,0.00,,,0.00,52.000000,,2013-02-10 18:42:00,
2013-02-10 12:52:00,28.0,27.0,-100.00,ESE,108,5.0,11.0,94,0.00,,,0.00,52.000000,,2013-02-10 18:52:00,
2013-02-10 13:02:00,28.0,27.0,-100.00,ESE,108,5.0,11.0,94,0.00,,,0.00,52.000000,,2013-02-10 19:02:00,
2013-02-10 13:10:00,29.0,27.0,-100.00,East,100,6.0,16.0,94,0.00,,,0.00,51.000000,,2013-02-10 19:10:00,
2013-02-10 13:32:00,29.0,27.0,-100.00,East,100,6.0,16.0,94,0.00,,,0.00,51.000000,,2013-02-10 19:32:00,
2013-02-10 13:43:00,29.0,27.0,-100.00,East,100,6.0,16.0,94,0.00,,,0.00,51.000000,,2013-02-10 19:43:00,
2013-02-10 13:52:00,29.0,27.0,-100.00,East,100,6.0,16.0,94,0.00,,,0.00,51.000000,,2013-02-10 19:52:00,
2013-02-10 14:02:00,29.0,27.0,-100.00,East,100,6.0,16.0,94,0.00,,,0.00,51.000000,,2013-02-10 20:02:00,
2013-02-10 14:10:00,29.0,27.0,-100.00,East,99,6.0,20.0,94,0.00,,,0.00,45.000000,,2013-02-10 20:10:00,
2013-02-10 14:42:00,29.0,27.0,-100.00,East,99,6.0,20.0,94,0.00,,,0.00,45.000000,,2013-02-10 20:42:00,
2013-02-10 14:52:00,29.0,27.0,-100.00,East,99,6.0,20.0,94,0.00,,,0.00,45.000000,,2013-02-10 20:52:00,
2013-02-10 15:02:00,29.0,27.0,-100.00,East,99,6.0,20.0,94,0.00,,,0.00,45.000000,,2013-02-10 21:02:00,
2013-02-10 15:10:00,30.0,29.0,-100.00,ESE,123,7.0,17.0,95,0.01,,,0.01,28.000000,,2013-02-10 21:10:00,
2013-02-10 15:32:00,30.0,29.0,-100.00,ESE,123,7.0,17.0,95,0.01,,,0.01,28.000000,,2013-02-10 21:32:00,
2013-02-10 15:42:00,30.0,29.0,-100.00,ESE,123,7.0,17.0,95,0.01,,,0.01,28.000000,,2013-02-10 21:42:00,
2013-02-10 15:52:00,30.0,29.0,-100.00,ESE,123,7.0,17.0,95,0.01,,,0.01,28.000000,,2013-02-10 21:52:00,
2013-02-10 16:02:00,30.0,29.0,-100.00,ESE,123,7.0,17.0,95,0.01,,,0.01,28.000000,,2013-02-10 22:02:00,
2013-02-10 16:10:00,31.0,30.0,-100.00,SE,132,6.0,17.0,97,0.08,,,0.09,13.000000,,2013-02-10 22:10:00,
2013-02-10 16:42:00,31.0,30.0,-100.00,SE,132,6.0,17.0,97,0.08,,,0.09,13.000000,,2013-02-10 22:42:00,
2013-02-10 16:53:00,31.0,30.0,-100.00,SE,132,6.0,17.0,97,0.08,,,0.09,13.000000,,2013-02-10 22:53:00,
2013-02-10 17:02:00,31.0,30.0,-100.00,SE,132,6.0,17.0,97,0.08,,,0.09,13.000000,,2013-02-10 23:02:00,
2013-02-10 17:10:00,31.0,31.0,-100.00,SE,132,5.0,13.0,98,0.05,,,0.14,1.000000,,2013-02-10 23:10:00,
2013-02-10 17:42:00,31.0,31.0,-100.00,SE,132,5.0,13.0,98,0.05,,,0.14,1.000000,,2013-02-10 23:42:00,
2013-02-10 17:52:00,31.0,31.0,-100.00,SE,132,5.0,13.0,98,0.05,,,0.14,1.000000,,2013-02-10 23:52:00,
2013-02-10 18:02:00,31.0,31.0,-100.00,SE,132,5.0,13.0,98,0.05,,,0.14,1.000000,,2013-02-11 00:02:00,
2013-02-10 18:10:00,31.0,31.0,-100.00,SE,128,5.0,15.0,99,0.07,,,0.21,0.000000,,2013-02-11 00:10:00,
2013-02-10 18:42:00,31.0,31.0,-100.00,SE,128,5.0,15.0,99,0.07,,,0.21,0.000000,,2013-02-11 00:42:00,
2013-02-10 18:52:00,31.0,31.0,-100.00,SE,128,5.0,15.0,99,0.07,,,0.21,0.000000,,2013-02-11 00:52:00,
2013-02-10 19:01:00,31.0,31.0,-100.00,SE,128,5.0,15.0,99,0.07,,,0.21,0.000000,,2013-02-11 01:01:00,
2013-02-10 20:10:00,31.0,31.0,-100.00,SE,127,4.0,11.0,99,-99.99,,,0.22,0.000000,,2013-02-11 02:10:00,
2013-02-10 20:42:00,31.0,31.0,-100.00,SE,127,4.0,11.0,99,-99.99,,,0.22,0.000000,,2013-02-11 02:42:00,
2013-02-10 20:52:00,31.0,31.0,-100.00,SE,127,4.0,11.0,99,-99.99,,,0.22,0.000000,,2013-02-11 02:52:00,
2013-02-10 21:02:00,31.0,31.0,-100.00,SE,127,4.0,11.0,99,-99.99,,,0.22,0.000000,,2013-02-11 03:02:00,
2013-02-10 21:10:00,31.0,31.0,-100.00,ESE,104,3.0,11.0,99,0.00,,,0.22,0.000000,,2013-02-11 03:10:00,
2013-02-10 21:32:00,31.0,31.0,-100.00,ESE,104,3.0,11.0,99,0.00,,,0.22,0.000000,,2013-02-11 03:32:00,
2013-02-10 21:42:00,31.0,31.0,-100.00,ESE,104,3.0,11.0,99,0.00,,,0.22,0.000000,,2013-02-11 03:42:00,
2013-02-10 21:52:00,31.0,31.0,-100.00,ESE,104,3.0,11.0,99,0.00,,,0.22,0.000000,,2013-02-11 03:52:00,
2013-02-10 22:01:00,31.0,31.0,-100.00,ESE,104,3.0,11.0,99,0.00,,,0.22,0.000000,,2013-02-11 04:01:00,
2013-02-10 22:10:00,31.0,31.0,-100.00,East,88,3.0,6.0,100,0.02,,,0.24,0.000000,,2013-02-11 04:10:00,
2013-02-10 22:32:00,31.0,31.0,-100.00,East,88,3.0,6.0,100,0.02,,,0.24,0.000000,,2013-02-11 04:32:00,
2013-02-10 22:42:00,31.0,31.0,-100.00,East,88,3.0,6.0,100,0.02,,,0.24,0.000000,,2013-02-11 04:42:00,
2013-02-10 22:52:00,31.0,31.0,-100.00,East,88,3.0,6.0,100,0.02,,,0.24,0.000000,,2013-02-11 04:52:00,
2013-02-10 23:01:00,31.0,31.0,-100.00,East,88,3.0,6.0,100,0.02,,,0.24,0.000000,,2013-02-11 05:01:00,
2013-02-10 23:10:00,31.0,31.0,-100.00,East,80,3.0,6.0,100,0.03,,,0.27,0.000000,,2013-02-11 05:10:00,
2013-02-10 23:42:00,31.0,31.0,-100.00,East,80,3.0,6.0,100,0.03,,,0.27,0.000000,,2013-02-11 05:42:00,
2013-02-10 23:53:00,31.0,31.0,-100.00,East,80,3.0,6.0,100,0.03,,,0.27,0.000000,,2013-02-11 05:53:00,